Weather Roundup
Issued by NWS Springfield, MO

Home | Current Version | Previous Version | Text Only | Print | Product List | Glossary Off
Versions: 1 2 3 4 5 6 7 8 9 10 11 12 13 14 15 16 17 18 19 20 21 22 23 24 25 26 27 28 29 30 31 32 33 34 35 36 37 38 39 40 41 42 43 44 45 46 47 48 49 50

000
NZUS99 KSGF 080307
HRRSGF

HOURLY WEATHER
NATIONAL WEATHER SERVICE SPRINGFIELD MO
900 PM CST SUN FEB 07 2016

......SGF CWA......

CITY           SKY/WX    TMP DP  RH WIND       PRES   REMARKS
SPRINGFIELD    CLEAR     41  17  38 W8        30.01S
JOPLIN         MOCLDY    43  17  35 W13       30.08S
WEST PLAINS    CLEAR     41  25  53 W8        29.98F
ROLLA          PTCLDY    42  21  43 W14       29.91F
OSAGE BEACH    MOCLDY    43  18  36 W7G16     29.96S
BRANSON        MOCLDY    45  19  36 NW8G17    30.04R

......SURROUNDING SGF CWA......

CITY           SKY/WX    TMP DP  RH WIND       PRES   REMARKS
CHANUTE        PTCLDY    43  19  38 NW16G24   30.11R
PARSONS        PTCLDY    42  17  36 NW12      30.13R
COFFEYVILLE    CLEAR     43  17  35 NW13      30.13R
EMPORIA        PTCLDY    37  21  52 NW10      30.11R WCI  30
GROVE OK       CLEAR     45  18  33 NW3       30.11F
ROGERS AR      PTCLDY    45  15  30 NW12G18   30.08R
SILOAM SPRINGS PTCLDY    43  19  39 NW13      30.10S
HARRISON AR    CLOUDY    46  22  38 NW13G20   30.03S
NEAR YELLVILLE MOCLDY    46  19  34 W8        30.00S

......KANSAS AND MISSOURI......

CITY           SKY/WX    TMP DP  RH WIND       PRES   REMARKS
KANSAS CTY INT CLOUDY    38  27  64 NW18G31   30.01F WCI  28
DOWNTOWN KC    CLOUDY    40  27  59 NW17G28   30.01F WCI  31
COLUMBIA       PTCLDY    41  23  48 NW10      29.91F
SEDALIA        CLOUDY    42  25  50 NW18G32   29.97S
ST JOSEPH      CLOUDY    37  27  67 NW26G37   30.01F WCI  25
ST LOUIS       PTCLDY    39  30  70 W5        29.89F
SPIRIT OF STL  MOCLDY    37  30  75 CALM      29.90F
KIRKSVILLE     FLURRIES  34  30  85 W16G23    29.88F WCI  24
WICHITA        CLEAR     40  21  46 NW18G26   30.18S WCI  31
TOPEKA         CLOUDY    41  23  48 W14       30.07F
OLATHE         CLOUDY    39  24  55 NW18G26   30.03F WCI  30

......TENNESSEE......

CITY           SKY/WX    TMP DP  RH WIND       PRES   REMARKS
MEMPHIS        MOCLDY    51  31  46 SW7       29.98F
NASHVILLE      PTCLDY    49  19  30 SW7       29.93F

......ARKANSAS.......

CITY           SKY/WX    TMP DP  RH WIND       PRES   REMARKS
FAYETTEVILLE   PTCLDY    43  24  47 NW12      30.09R
FT SMITH       CLEAR     41  26  55 W8        30.11R
LITTLE ROCK    MOCLDY    54  30  40 W13G22    30.05S

......OKLAHOMA.......

CITY           SKY/WX    TMP DP  RH WIND       PRES   REMARKS
TULSA          MOCLDY    49  24  37 NW20G28   30.15R
PONCA CITY     PTCLDY    42  21  43 NW10      30.21R
MCALESTER      PTCLDY    48  25  40 NW6       30.17R
OKLAHOMA CITY  PTCLDY    46  22  38 NW20G25   30.24R

......IOWA............

CITY           SKY/WX    TMP DP  RH WIND       PRES   REMARKS
DES MOINES     FLURRIES  34  29  82 NW22G28   29.85S WCI  22
QUAD CITIES    CLEAR     35  26  69 W14       29.77F WCI  26

......ILLINOIS........

CITY           SKY/WX    TMP DP  RH WIND       PRES   REMARKS
QUINCY         CLOUDY    37  28  70 SW7       29.84F WCI  32
CHICAGO        PTCLDY    35  27  72 W12       29.72F WCI  27



USA.gov is the U.S. government's official web portal to all federal, state and local government web resources and services.